Vancouver, WA
on Sunday, February 17, 2013

Sunday
Previous Day Next Day
Daily Summary
 ActualAverageRecord
Temperature
Mean Temperature °F 44°F  
Max Temperature 47°F 52°F 66°F (1948)
Min Temperature 32°F 35°F 17°F (1936)
Degree Days
Heating Degree Days 25    
Month to date heating degree days 369  
Since 1 July heating degree days 2792  
Cooling Degree Days 0    
Month to date cooling degree days 0  
Year to date cooling degree days 0  
Moisture
Dew Point 34°F   
Average Humidity 78    
Maximum Humidity 96    
Minimum Humidity 60    
Precipitation
Precipitation 0.00 in 0.10 in 1.77 in (1949)
Month to date precipitation 0.23 2.61  
Year to date precipitation 3.63 8.11  
Snow
Snow 0.00 in in in ()
Month to date snowfall 0.0  
Snow Depth 0.00 in   
Wind
Wind Speed 2 mph   
Max Wind Speed 8 mph   
Max Gust Speed 10 mph   
Visibility 10 miles   
Events     

Key: T is trace of precipitation, MM is missing value
Source: NWS Daily Summary
Time(PST)TemperatureDew PointHumidity Pressure Visibility Wind DirectionWind SpeedGust SpeedPrecipitationEvents Conditions
12:53 AM 35.1°F 32.0°F 89% 30.29 in 10.0 miles Calm Calm - N/A   Partly Cloudy
1:53 AM 33.1°F 30.9°F 92% 30.31 in 10.0 miles Calm Calm - N/A   Mostly Cloudy
2:53 AM 34.0°F 32.0°F 92% 30.31 in 10.0 miles Calm Calm - N/A   Mostly Cloudy
3:53 AM 37.0°F 34.0°F 89% 30.30 in 10.0 miles Calm Calm - N/A   Overcast
4:53 AM 36.0°F 33.1°F 89% 30.29 in 10.0 miles Calm Calm - N/A   Overcast
5:53 AM 37.9°F 35.1°F 89% 30.29 in 10.0 miles Calm Calm - N/A   Overcast
6:53 AM 37.0°F 34.0°F 89% 30.29 in 10.0 miles Calm Calm - N/A   Overcast
7:53 AM 37.9°F 35.1°F 89% 30.30 in 10.0 miles Calm Calm - N/A   Overcast
8:53 AM 41.0°F 36.0°F 82% 30.30 in 10.0 miles Calm Calm - N/A   Overcast
9:53 AM 44.1°F 36.0°F 73% 30.29 in 10.0 miles Calm Calm - N/A   Mostly Cloudy
10:53 AM 46.0°F 36.0°F 68% 30.28 in 10.0 miles Calm Calm - N/A   Mostly Cloudy
11:53 AM 45.0°F 36.0°F 71% 30.28 in 10.0 miles SE 4.6 mph - N/A   Overcast
12:53 PM 45.0°F 36.0°F 71% 30.26 in 10.0 miles ESE 5.8 mph - N/A   Overcast
1:53 PM 46.0°F 36.0°F 68% 30.24 in 10.0 miles East 5.8 mph - N/A   Overcast
2:53 PM 46.9°F 34.0°F 61% 30.23 in 10.0 miles ESE 8.1 mph - N/A   Overcast
3:53 PM 46.0°F 34.0°F 63% 30.22 in 10.0 miles East 5.8 mph - N/A   Overcast
4:53 PM 45.0°F 33.1°F 63% 30.20 in 10.0 miles ESE 5.8 mph - N/A   Overcast
5:53 PM 45.0°F 32.0°F 60% 30.19 in 10.0 miles East 3.5 mph - N/A   Overcast
6:53 PM 44.1°F 32.0°F 63% 30.18 in 10.0 miles Calm Calm - N/A   Mostly Cloudy
7:53 PM 39.9°F 32.0°F 73% 30.17 in 10.0 miles Calm Calm - N/A   Overcast
9:53 PM 37.9°F 32.0°F 79% 30.15 in 10.0 miles Calm Calm - N/A   Clear
10:53 PM 37.0°F 30.9°F 79% 30.14 in 10.0 miles Calm Calm - N/A   Clear
11:53 PM 34.0°F 28.9°F 82% 30.12 in 10.0 miles Calm Calm - N/A   Clear
Moon Phase
Feb. 17 Feb. 17 Feb. 25 Mar. 04 Mar. 11
Sunrise:07:08 AM (PST) Moon Rise:10:41 AM (PST)2/17
Sunset:05:41 PM (PST) Moon Set:01:04 AM (PST)2/17

Copyright © 2014 The Weather Underground, Inc.